Monett, MO

7:11 PM CDT on March 28, 2017 (GMT -0500)
Monett

Weather History for KHFJ - February, 2014

Change the Weather History Date:

Wednesday, February 19, 2014

  Actual Average (KJLN) Record (KJLN)
Temperature  
Mean Temperature 48 °F -  
Max Temperature 60 °F 50 °F 78 °F (2017)
Min Temperature 37 °F 29 °F -1 °F (1978)
Degree Days  
Heating Degree Days 16    
Moisture  
Dew Point 32 °F    
Average Humidity 51    
Maximum Humidity 81    
Minimum Humidity 25    
Precipitation  
Precipitation 0.00 in - - ()
Sea Level Pressure  
Sea Level Pressure 29.86 in    
Wind  
Wind Speed 10 mph (ESE)    
Max Wind Speed 20 mph    
Max Gust Speed 29 mph    
Visibility 10 miles    
Events      
Averages and records for this station are not official NWS values.
T = Trace of Precipitation, MM = Missing Value Source: NWS Daily Summary

Daily Weather History Graph

Daily Weather History Graph

Search for Another Location

Airport or City:

Trip Planner

Search our weather history database for the weather conditions in past years. The results will help you decide how hot, cold, wet, or windy it might be!

Date:

Astronomy

Feb. 19, 2014 Rise Set
Actual Time 6:59 AM CST 6:00 PM CST
Civil Twilight 6:33 AM CST 6:26 PM CST
Nautical Twilight 6:03 AM CST 6:57 PM CST
Astronomical Twilight 5:33 AM CST 7:27 PM CST
Moon 10:46 PM CST (2/19) 9:13 AM CST (2/19)
Length of Visible Light 11h 53m
Length of Day
11h 00m
Waning Gibbous, 79% of the Moon is Illuminated
Feb 19
Waning Gibbous
Feb 22
Last Quarter
Mar 1
New
Mar 8
First Quarter
Mar 16
Full

Hourly Weather History & Observations

Time (CST) Temp. Windchill Dew Point Humidity Pressure Visibility Wind Dir Wind Speed Gust Speed Precip Events Conditions
12:15 AM 50.0 °F - 30.2 °F 47% 29.96 in 10.0 mi North 10.4 mph - N/A   Clear
12:35 AM 48.2 °F - 30.2 °F 50% 29.96 in 10.0 mi North 9.2 mph - N/A   Clear
12:55 AM 46.4 °F 41.1 °F 30.2 °F 53% 29.98 in 10.0 mi North 11.5 mph - N/A   Clear
1:15 AM 46.4 °F 41.5 °F 32.0 °F 57% 29.99 in 10.0 mi North 10.4 mph - N/A   Clear
1:35 AM 44.6 °F 39.2 °F 30.2 °F 57% 29.98 in 10.0 mi North 10.4 mph 16.1 mph N/A   Clear
1:55 AM 44.6 °F 38.8 °F 32.0 °F 61% 29.97 in 10.0 mi NNE 11.5 mph - N/A   Clear
2:15 AM 44.6 °F 39.7 °F 30.2 °F 57% 29.97 in 10.0 mi North 9.2 mph - N/A   Clear
2:35 AM 42.8 °F 38.6 °F 30.2 °F 61% 29.97 in 10.0 mi NNE 6.9 mph - N/A   Clear
2:55 AM 42.8 °F 39.3 °F 30.2 °F 61% 29.96 in 10.0 mi NE 5.8 mph - N/A   Clear
3:15 AM 39.2 °F - 30.2 °F 70% 29.96 in 10.0 mi Calm Calm - N/A   Clear
3:35 AM 41.0 °F 37.1 °F 30.2 °F 65% 29.96 in 10.0 mi ENE 5.8 mph - N/A   Clear
3:55 AM 41.0 °F 38.0 °F 30.2 °F 65% 29.95 in 10.0 mi ESE 4.6 mph - N/A   Clear
4:15 AM 41.0 °F 37.1 °F 30.2 °F 65% 29.95 in 10.0 mi East 5.8 mph - N/A   Clear
4:35 AM 41.0 °F 38.0 °F 30.2 °F 65% 29.97 in 10.0 mi ESE 4.6 mph - N/A   Clear
4:55 AM 37.4 °F 34.9 °F 30.2 °F 75% 29.97 in 10.0 mi ESE 3.5 mph - N/A   Clear
5:15 AM 39.2 °F 35.0 °F 30.2 °F 70% 29.99 in 10.0 mi SE 5.8 mph - N/A   Clear
5:35 AM 39.2 °F 35.0 °F 30.2 °F 70% 30.00 in 10.0 mi SSE 5.8 mph - N/A   Clear
5:55 AM 39.2 °F 35.9 °F 30.2 °F 70% 30.01 in 10.0 mi South 4.6 mph - N/A   Clear
6:15 AM 39.2 °F 37.0 °F 30.2 °F 70% 30.02 in 10.0 mi South 3.5 mph - N/A   Clear
6:35 AM 39.2 °F 35.9 °F 30.2 °F 70% 30.00 in 10.0 mi East 4.6 mph - N/A   Clear
6:55 AM 37.4 °F 32.8 °F 30.2 °F 75% 30.00 in 10.0 mi ENE 5.8 mph - N/A   Clear
7:15 AM 37.4 °F 32.8 °F 30.2 °F 75% 29.99 in 10.0 mi East 5.8 mph - N/A   Clear
7:35 AM 37.4 °F 32.8 °F 30.2 °F 75% 30.00 in 10.0 mi ESE 5.8 mph - N/A   Clear
7:55 AM 37.4 °F 34.9 °F 32.0 °F 81% 30.01 in 10.0 mi SSE 3.5 mph - N/A   Clear
8:15 AM 41.0 °F 38.0 °F 32.0 °F 70% 30.00 in 10.0 mi East 4.6 mph - N/A   Clear
8:35 AM 42.8 °F 39.3 °F 32.0 °F 66% 30.01 in 10.0 mi ESE 5.8 mph - N/A   Clear
8:55 AM 46.4 °F 42.9 °F 32.0 °F 57% 30.00 in 10.0 mi East 6.9 mph - N/A   Clear
9:15 AM 50.0 °F - 32.0 °F 50% 30.00 in 10.0 mi ESE 9.2 mph - N/A   Clear
9:35 AM 51.8 °F - 30.2 °F 44% 30.00 in 10.0 mi ESE 11.5 mph - N/A   Clear
9:55 AM 51.8 °F - 30.2 °F 44% 30.00 in 10.0 mi ESE 11.5 mph - N/A   Clear
10:15 AM 51.8 °F - 28.4 °F 41% 30.01 in 10.0 mi ESE 11.5 mph - N/A   Clear
10:35 AM 51.8 °F - 28.4 °F 41% 30.00 in 10.0 mi ESE 13.8 mph - N/A   Clear
10:55 AM 53.6 °F - 30.2 °F 41% 29.97 in 10.0 mi ESE 11.5 mph 17.3 mph N/A   Clear
11:15 AM 55.4 °F - 26.6 °F 33% 29.95 in 10.0 mi East 11.5 mph 18.4 mph N/A   Clear
11:35 AM 57.2 °F - 24.8 °F 29% 29.93 in 10.0 mi East 15.0 mph - N/A   Clear
11:55 AM 59.0 °F - 24.8 °F 27% 29.91 in 10.0 mi ESE 16.1 mph 24.2 mph N/A   Clear
12:15 PM 59.0 °F - 24.8 °F 27% 29.90 in 10.0 mi ESE 16.1 mph 24.2 mph N/A   Clear
12:35 PM 59.0 °F - 24.8 °F 27% 29.89 in 10.0 mi ESE 15.0 mph 18.4 mph N/A   Clear
12:55 PM 59.0 °F - 23.0 °F 25% 29.87 in 10.0 mi ESE 18.4 mph 21.9 mph N/A   Clear
1:15 PM 59.0 °F - 23.0 °F 25% 29.87 in 10.0 mi SE 15.0 mph 20.7 mph N/A   Clear
1:35 PM 59.0 °F - 26.6 °F 29% 29.88 in 10.0 mi SE 11.5 mph 16.1 mph N/A   Clear
1:55 PM 59.0 °F - 26.6 °F 29% 29.86 in 10.0 mi SE 12.7 mph 21.9 mph N/A   Scattered Clouds
2:15 PM 60.8 °F - 26.6 °F 27% 29.83 in 10.0 mi SE 12.7 mph 17.3 mph N/A   Scattered Clouds
2:35 PM 60.8 °F - 28.4 °F 29% 29.82 in 10.0 mi SE 13.8 mph 18.4 mph N/A   Clear
2:55 PM 60.8 °F - 30.2 °F 31% 29.81 in 10.0 mi ESE 10.4 mph - N/A   Scattered Clouds
3:15 PM 60.8 °F - 28.4 °F 29% 29.79 in 10.0 mi ESE 13.8 mph 17.3 mph N/A   Clear
3:35 PM 60.8 °F - 30.2 °F 31% 29.79 in 10.0 mi ESE 16.1 mph 19.6 mph N/A   Clear
3:55 PM 60.8 °F - 30.2 °F 31% 29.78 in 10.0 mi ESE 13.8 mph - N/A   Clear
4:15 PM 60.8 °F - 30.2 °F 31% 29.77 in 10.0 mi ESE 13.8 mph 20.7 mph N/A   Clear
4:35 PM 60.8 °F - 30.2 °F 31% 29.76 in 10.0 mi ESE 12.7 mph 20.7 mph N/A   Clear
4:55 PM 60.8 °F - 32.0 °F 34% 29.75 in 10.0 mi SE 16.1 mph 20.7 mph N/A   Mostly Cloudy
5:15 PM 59.0 °F - 32.0 °F 36% 29.73 in 10.0 mi SE 13.8 mph 21.9 mph N/A   Overcast
5:35 PM 59.0 °F - 32.0 °F 36% 29.73 in 10.0 mi ESE 12.7 mph - N/A   Mostly Cloudy
5:55 PM 59.0 °F - 32.0 °F 36% 29.72 in 10.0 mi SE 11.5 mph 19.6 mph N/A   Overcast
6:00 PM 59.0 °F - 32.0 °F 36% 29.72 in 10.0 mi SE 11.5 mph 19.6 mph N/A   Overcast
6:15 PM 57.2 °F - 33.8 °F 41% 29.71 in 10.0 mi ESE 11.5 mph - N/A   Overcast
6:35 PM 59.0 °F - 33.8 °F 39% 29.71 in 10.0 mi SE 13.8 mph - N/A   Overcast
6:55 PM 59.0 °F - 35.6 °F 42% 29.71 in 10.0 mi SE 12.7 mph 16.1 mph N/A   Overcast
7:15 PM 59.0 °F - 37.4 °F 45% 29.70 in 10.0 mi SE 15.0 mph 18.4 mph N/A   Overcast
7:35 PM 59.0 °F - 46.4 °F 63% 29.69 in 10.0 mi SSE 19.6 mph 23.0 mph N/A   Overcast
7:55 PM 59.0 °F - 46.4 °F 63% 29.69 in 10.0 mi SSE 16.1 mph 28.8 mph N/A   Overcast
8:15 PM 59.0 °F - 42.8 °F 55% 29.68 in 10.0 mi SE 16.1 mph 19.6 mph N/A   Overcast
8:30 PM 57.2 °F - 41.0 °F 55% 29.67 in 10.0 mi SE 16.1 mph 21.9 mph N/A   Overcast
8:55 PM 55.4 °F - 37.4 °F 51% 29.67 in 10.0 mi SE 17.3 mph 20.7 mph N/A   Overcast
9:15 PM 55.4 °F - 37.4 °F 51% 29.68 in 10.0 mi SE 12.7 mph 18.4 mph N/A   Overcast
9:35 PM 55.4 °F - 37.4 °F 51% 29.67 in 10.0 mi SE 12.7 mph 18.4 mph N/A   Overcast
10:15 PM 55.4 °F - 41.0 °F 58% 29.66 in 10.0 mi SE 13.8 mph 20.7 mph N/A   Overcast
10:35 PM 55.4 °F - 42.8 °F 63% 29.65 in 10.0 mi SE 10.4 mph - N/A   Overcast
10:55 PM 55.4 °F - 44.6 °F 67% 29.64 in 10.0 mi SE 9.2 mph - N/A   Overcast
11:15 PM 55.4 °F - 46.4 °F 72% 29.64 in 10.0 mi SSE 11.5 mph - N/A   Overcast
11:35 PM 55.4 °F - 46.4 °F 72% 29.62 in 10.0 mi SE 12.7 mph 19.6 mph N/A   Overcast
11:55 PM 55.4 °F - 46.4 °F 72% 29.62 in 10.0 mi ESE 8.1 mph - N/A   Overcast